Burlington, WA

7:59 AM PDT on June 22, 2017 (GMT -0700)
Skagit Regional

Weather History for KBVS - February, 2013

Change the Weather History Date:

Sunday, February 24, 2013

  Actual Average Record
Temperature  
Mean Temperature 42 °F -  
Max Temperature 46 °F 51 °F 57 °F (2016)
Min Temperature 39 °F 36 °F 32 °F (2015)
Degree Days  
Heating Degree Days 22    
Moisture  
Dew Point 39 °F    
Average Humidity 84    
Maximum Humidity 100    
Minimum Humidity 71    
Precipitation  
Precipitation 0.00 in - - ()
Sea Level Pressure  
Sea Level Pressure 30.21 in    
Wind  
Wind Speed 10 mph (SE)    
Max Wind Speed 22 mph    
Max Gust Speed 32 mph    
Visibility 10 miles    
Events      
Averages and records for this station are not official NWS values.
T = Trace of Precipitation, MM = Missing Value Source: NWS Daily Summary

Daily Weather History Graph

Daily Weather History Graph

Search for Another Location

Airport or City:

Trip Planner

Search our weather history database for the weather conditions in past years. The results will help you decide how hot, cold, wet, or windy it might be!

Date:

Astronomy

Feb. 24, 2013 Rise Set
Actual Time 7:00 AM PST 5:46 PM PST
Civil Twilight 6:28 AM PST 6:18 PM PST
Nautical Twilight 5:52 AM PST 6:54 PM PST
Astronomical Twilight 5:15 AM PST 7:30 PM PST
Moon 5:03 PM PST (2/24) 6:01 AM PST (2/24)
Length of Visible Light 11h 49m
Length of Day
10h 46m
Waxing Gibbous, 99% of the Moon is Illuminated
Feb 24
Waxing Gibbous
Feb 25
Full
Mar 4
Last Quarter
Mar 11
New
Mar 19
First Quarter

Hourly Weather History & Observations

Time (PST) Temp. Windchill Dew Point Humidity Pressure Visibility Wind Dir Wind Speed Gust Speed Precip Events Conditions
12:15 AM 42.8 °F 37.0 °F 41.0 °F 93% 30.36 in 10.0 mi SSW 10.4 mph - 0.00 in   Overcast
12:35 AM 42.8 °F 38.0 °F 41.0 °F 93% 30.36 in 10.0 mi SSW 8.1 mph - 0.00 in   Overcast
12:55 AM 42.8 °F 38.6 °F 41.0 °F 93% 30.37 in 10.0 mi South 6.9 mph 21.9 mph 0.00 in   Overcast
1:15 AM 39.2 °F 33.0 °F 39.2 °F 100% 30.37 in 8.0 mi South 9.2 mph - 0.00 in   Overcast
1:35 AM 39.2 °F 33.6 °F 39.2 °F 100% 30.38 in 7.0 mi South 8.1 mph - 0.00 in   Overcast
1:55 AM 39.2 °F 35.9 °F 39.2 °F 100% 30.38 in 5.0 mi South 4.6 mph - 0.00 in   Overcast
2:15 AM 39.2 °F 37.0 °F 39.2 °F 100% 30.39 in 4.0 mi SSE 3.5 mph - 0.00 in   Overcast
2:35 AM 39.2 °F - 39.2 °F 100% 30.39 in 3.0 mi Calm Calm - 0.00 in   Overcast
2:55 AM 39.2 °F - 39.2 °F 100% 30.38 in 4.0 mi Calm Calm - 0.00 in   Overcast
3:15 AM 39.2 °F - 39.2 °F 100% 30.38 in 5.0 mi Calm Calm - 0.00 in   Overcast
3:35 AM 39.2 °F - 39.2 °F 100% 30.38 in 10.0 mi Calm Calm - 0.00 in   Overcast
3:55 AM 39.2 °F - 39.2 °F 100% 30.37 in 10.0 mi Calm Calm - 0.00 in   Overcast
4:15 AM 39.2 °F - 39.2 °F 100% 30.37 in 10.0 mi Calm Calm - 0.00 in   Overcast
4:35 AM 39.2 °F - 39.2 °F 100% 30.37 in 10.0 mi Calm Calm - 0.00 in   Overcast
4:55 AM 39.2 °F - 39.2 °F 100% 30.36 in 10.0 mi Calm Calm - 0.00 in   Overcast
5:15 AM 39.2 °F 35.9 °F 39.2 °F 100% 30.35 in 10.0 mi SE 4.6 mph - 0.00 in   Overcast
5:35 AM 39.2 °F 34.2 °F 39.2 °F 100% 30.35 in 10.0 mi SE 6.9 mph - 0.00 in   Overcast
5:55 AM 41.0 °F 35.2 °F 39.2 °F 93% 30.35 in 10.0 mi SE 9.2 mph - 0.00 in   Overcast
6:15 AM 41.0 °F 35.2 °F 39.2 °F 93% 30.34 in 10.0 mi ESE 9.2 mph - 0.00 in   Overcast
6:35 AM 41.0 °F 34.7 °F 39.2 °F 93% 30.34 in 10.0 mi ESE 10.4 mph - 0.00 in   Overcast
6:55 AM 41.0 °F 35.8 °F 39.2 °F 93% 30.34 in 10.0 mi ESE 8.1 mph - 0.00 in   Overcast
7:15 AM 41.0 °F 34.7 °F 39.2 °F 93% 30.33 in 10.0 mi ESE 10.4 mph 17.3 mph 0.00 in   Overcast
7:35 AM 41.0 °F 35.2 °F 39.2 °F 93% 30.33 in 10.0 mi SE 9.2 mph 19.6 mph 0.00 in   Overcast
7:55 AM 41.0 °F 34.7 °F 39.2 °F 93% 30.33 in 10.0 mi SE 10.4 mph 18.4 mph 0.00 in   Overcast
8:15 AM 42.8 °F 37.0 °F 39.2 °F 87% 30.33 in 10.0 mi SE 10.4 mph 16.1 mph 0.00 in   Overcast
8:35 AM 42.8 °F 37.0 °F 39.2 °F 87% 30.32 in 10.0 mi ESE 10.4 mph - 0.00 in   Overcast
8:55 AM 42.8 °F 36.6 °F 39.2 °F 87% 30.32 in 10.0 mi SE 11.5 mph 17.3 mph 0.00 in   Overcast
9:15 AM 42.8 °F 37.5 °F 39.2 °F 87% 30.31 in 10.0 mi ESE 9.2 mph 16.1 mph 0.00 in   Overcast
9:35 AM 42.8 °F 36.2 °F 39.2 °F 87% 30.31 in 10.0 mi ESE 12.7 mph 18.4 mph 0.00 in   Overcast
9:55 AM 42.8 °F 36.6 °F 39.2 °F 87% 30.31 in 10.0 mi SE 11.5 mph 17.3 mph 0.00 in   Overcast
10:15 AM 44.6 °F 38.1 °F 39.2 °F 81% 30.30 in 10.0 mi SE 13.8 mph 18.4 mph 0.00 in   Overcast
10:35 AM 44.6 °F 38.8 °F 39.2 °F 81% 30.30 in 10.0 mi SE 11.5 mph 18.4 mph 0.00 in   Overcast
10:55 AM 44.6 °F 38.4 °F 39.2 °F 81% 30.29 in 10.0 mi SE 12.7 mph 19.6 mph 0.00 in   Overcast
11:15 AM 44.6 °F 38.1 °F 39.2 °F 81% 30.29 in 10.0 mi SE 13.8 mph 18.4 mph 0.00 in   Overcast
11:35 AM 44.6 °F 37.4 °F 39.2 °F 81% 30.28 in 10.0 mi SE 16.1 mph 19.6 mph 0.00 in   Overcast
11:55 AM 46.4 °F 40.4 °F 39.2 °F 76% 30.27 in 10.0 mi SE 13.8 mph 20.7 mph 0.00 in   Overcast
12:15 PM 46.4 °F 40.7 °F 39.2 °F 76% 30.26 in 10.0 mi SE 12.7 mph 20.7 mph 0.00 in   Overcast
12:35 PM 46.4 °F 41.1 °F 39.2 °F 76% 30.25 in 10.0 mi SE 11.5 mph - 0.00 in   Overcast
12:55 PM 46.4 °F 41.9 °F 39.2 °F 76% 30.25 in 10.0 mi SE 9.2 mph 17.3 mph 0.00 in   Overcast
1:15 PM 46.4 °F 41.1 °F 39.2 °F 76% 30.23 in 10.0 mi SE 11.5 mph 19.6 mph 0.00 in   Overcast
1:35 PM 46.4 °F 41.1 °F 39.2 °F 76% 30.23 in 10.0 mi SE 11.5 mph 25.3 mph 0.00 in   Overcast
1:55 PM 46.4 °F 40.7 °F 39.2 °F 76% 30.22 in 10.0 mi SSE 12.7 mph 17.3 mph 0.00 in   Overcast
2:15 PM 46.4 °F 40.7 °F 39.2 °F 76% 30.21 in 10.0 mi SE 12.7 mph 20.7 mph 0.00 in   Overcast
2:35 PM 46.4 °F 39.5 °F 39.2 °F 76% 30.19 in 10.0 mi SE 17.3 mph 21.9 mph 0.00 in   Overcast
2:55 PM 46.4 °F 39.5 °F 39.2 °F 76% 30.18 in 10.0 mi SE 17.3 mph 24.2 mph 0.00 in   Overcast
3:15 PM 46.4 °F 39.0 °F 39.2 °F 76% 30.17 in 10.0 mi SE 19.6 mph 27.6 mph 0.00 in   Mostly Cloudy
3:35 PM 46.4 °F 39.8 °F 39.2 °F 76% 30.16 in 10.0 mi SE 16.1 mph 27.6 mph 0.00 in   Mostly Cloudy
3:55 PM 46.4 °F 40.7 °F 39.2 °F 76% 30.15 in 10.0 mi SE 12.7 mph 23.0 mph 0.00 in   Mostly Cloudy
4:15 PM 46.4 °F 41.1 °F 39.2 °F 76% 30.15 in 10.0 mi SE 11.5 mph 23.0 mph 0.00 in   Mostly Cloudy
4:35 PM 46.4 °F 39.8 °F 39.2 °F 76% 30.14 in 10.0 mi SE 16.1 mph 24.2 mph 0.00 in   Overcast
4:55 PM 46.4 °F 41.1 °F 39.2 °F 76% 30.13 in 10.0 mi SE 11.5 mph 20.7 mph 0.00 in   Overcast
5:15 PM 46.4 °F 40.7 °F 39.2 °F 76% 30.12 in 10.0 mi SE 12.7 mph 21.9 mph 0.00 in   Overcast
5:35 PM 46.4 °F 40.7 °F 39.2 °F 76% 30.12 in 10.0 mi SE 12.7 mph 23.0 mph 0.00 in   Mostly Cloudy
5:55 PM 46.4 °F 40.1 °F 39.2 °F 76% 30.10 in 10.0 mi SE 15.0 mph 23.0 mph 0.00 in   Overcast
6:15 PM 46.4 °F 40.1 °F 39.2 °F 76% 30.09 in 10.0 mi SE 15.0 mph 20.7 mph 0.00 in   Overcast
6:35 PM 46.4 °F 39.5 °F 39.2 °F 76% 30.08 in 10.0 mi SE 17.3 mph 26.5 mph 0.00 in   Overcast
6:55 PM 46.4 °F 39.2 °F 39.2 °F 76% 30.06 in 10.0 mi SE 18.4 mph 26.5 mph 0.00 in   Overcast
7:15 PM 46.4 °F 39.8 °F 39.2 °F 76% 30.05 in 10.0 mi SE 16.1 mph 23.0 mph 0.00 in   Overcast
7:35 PM 46.4 °F 39.8 °F 39.2 °F 76% 30.04 in 10.0 mi SE 16.1 mph 21.9 mph 0.00 in   Overcast
7:55 PM 46.4 °F 39.5 °F 39.2 °F 76% 30.03 in 10.0 mi SE 17.3 mph 28.8 mph 0.00 in   Overcast
8:15 PM 46.4 °F 39.5 °F 39.2 °F 76% 30.01 in 10.0 mi SE 17.3 mph 27.6 mph 0.00 in   Mostly Cloudy
8:35 PM 46.4 °F 39.8 °F 39.2 °F 76% 30.00 in 10.0 mi SE 16.1 mph 26.5 mph 0.00 in   Mostly Cloudy
8:55 PM 46.4 °F 38.5 °F 39.2 °F 76% 29.98 in 10.0 mi SE 21.9 mph 31.1 mph 0.00 in   Mostly Cloudy
9:15 PM 46.4 °F 39.2 °F 39.2 °F 76% 29.97 in 10.0 mi SE 18.4 mph 27.6 mph 0.00 in   Mostly Cloudy
9:35 PM 46.4 °F 40.4 °F 37.4 °F 71% 29.96 in 10.0 mi SSE 13.8 mph 31.1 mph 0.00 in   Overcast
9:55 PM 46.4 °F 39.0 °F 37.4 °F 71% 29.96 in 10.0 mi SE 19.6 mph 27.6 mph 0.00 in   Mostly Cloudy
10:15 PM 46.4 °F 39.0 °F 37.4 °F 71% 29.95 in 10.0 mi SSE 19.6 mph 32.2 mph 0.00 in   Mostly Cloudy
10:35 PM 46.4 °F 40.4 °F 37.4 °F 71% 29.94 in 10.0 mi SSE 13.8 mph 23.0 mph 0.00 in   Mostly Cloudy
10:55 PM 46.4 °F 39.0 °F 39.2 °F 76% 29.94 in 10.0 mi SSE 19.6 mph 27.6 mph 0.00 in   Mostly Cloudy
11:15 PM 44.6 °F 38.4 °F 39.2 °F 81% 29.93 in 10.0 mi SSE 12.7 mph 25.3 mph 0.00 in   Overcast
11:35 PM 44.6 °F 37.8 °F 39.2 °F 81% 29.91 in 10.0 mi SE 15.0 mph 24.2 mph 0.00 in   Overcast
11:55 PM 44.6 °F 38.1 °F 41.0 °F 87% 29.91 in 9.0 mi SE 13.8 mph 23.0 mph 0.00 in   Overcast